Location: Newark
(47.5833°N, 8.1500°E)
Time: 18:07:34
(UTC+00:00)

Transit 2A - Pass Details

Date: 05 November 2020
Orbit: 595 x 964 km, 66.7° (Epoch: 29 November)

Event Time Altitude Azimuth Distance (km) Brightness Sun altitude
Rises 04:01:08 0° 319° (NW) 3,561 - -23.3°
Exits shadow 04:04:28 - 339° (NNW) 2,721 8.6 -22.8°
Reaches altitude 10° 04:05:24 10° 346° (NNW) 2,544 8.6 -22.6°
Maximum altitude 04:07:59 13° 13° (NNE) 2,290 8.6 -22.2°
Drops below altitude 10° 04:10:28 10° 39° (NE) 2,436 9.1 -21.7°
Sets 04:14:22 0° 68° (ENE) 3,272 10.4 -21.1°
